Regional Weather Roundup
Issued by NWS Little Rock, AR

Home | Current Version | Previous Version | Graphics & Text | Print | Product List | Glossary On
Versions: 1 2 3 4 5 6 7 8 9 10 11 12 13 14 15 16 17 18 19 20 21 22 23 24 25 26 27 28 29 30 31 32 33 34 35 36 37 38 39 40 41 42 43 44 45 46 47 48 49 50
000
ASUS44 KLZK 030405
RWRLZK

WEATHER ROUNDUP FOR ARKANSAS
NATIONAL WEATHER SERVICE LITTLE ROCK AR
1100 PM CDT WED SEP 02 2015

NOTE: "FAIR" INDICATES FEW OR NO CLOUDS BELOW 12,000 FEET WITH NO
SIGNIFICANT WEATHER AND/OR OBSTRUCTIONS TO VISIBILITY.

ARZ001-003-010-029-030500-
NORTHWEST ARKANSAS

CITY           SKY/WX    TMP DP  RH WIND       PRES   REMARKS
FAYETTEVILLE   CLEAR     69  69 100 S3        30.03S
FORT SMITH     CLEAR     80  64  58 CALM      29.98R
HARRISON       CLEAR     73  66  78 S6        30.05S
BENTONVILLE    CLEAR     73  64  73 SE5       30.03F
ROGERS         CLEAR     74  70  87 E5        30.04S
SILOAM SPGS    CLEAR     75  64  69 E5        30.01S
HIGHFILL       CLEAR     72  68  87 CALM      30.03S
$$

ARZ004-005-016-030500-
NORTH CENTRAL ARKANSAS

CITY           SKY/WX    TMP DP  RH WIND       PRES   REMARKS
BATESVILLE     CLEAR     73  70  88 W3        30.02S
FLIPPIN        CLEAR     77  64  65 SW3       30.01S
MTN HOME       CLEAR     75  68  78 S3        30.03R
$$

ARZ040-041-030500-
WEST CENTRAL ARKANSAS

CITY           SKY/WX    TMP DP  RH WIND       PRES   REMARKS
MENA           CLEAR     72  68  88 CALM      30.03S
MOUNT IDA      CLEAR     73  67  81 CALM      30.00S
$$

ARZ009-017-025-026-028-030500-
NORTHEAST ARKANSAS

CITY           SKY/WX    TMP DP  RH WIND       PRES   REMARKS
JONESBORO      CLEAR     72  70  93 CALM      30.00S
NEWPORT        CLEAR     77  73  87 S6        30.02R
WALNUT RIDGE   CLEAR     77  70  78 CALM      30.01R
BLYTHEVILLE    CLEAR     76  72  87 CALM      30.01S
$$

ARZ022-023-033-042-044-030500-
CENTRAL ARKANSAS

CITY           SKY/WX    TMP DP  RH WIND       PRES   REMARKS
LITTLE ROCK    CLEAR     76  72  87 CALM      30.00S
N LITTLE ROCK  CLEAR     75  72  92 W3        30.00S
JACKSONVILLE   CLEAR     73  71  95 CALM      30.00S
SEARCY         CLEAR     73  71  93 CALM      30.02S
HOT SPRINGS    CLEAR     73  68  84 CALM      30.01F
RUSSELLVILLE   CLEAR     74  69  85 SE3       30.00S
$$

ARZ036-030500-
EAST ARKANSAS

CITY           SKY/WX    TMP DP  RH WIND       PRES   REMARKS
WEST MEMPHIS   CLEAR     74  74 100 CALM      29.99F
$$

ARZ050-053-066-070-073-030500-
SOUTHWEST ARKANSAS

CITY           SKY/WX    TMP DP  RH WIND       PRES   REMARKS
ARKADELPHIA    FAIR      72  71  96 CALM      30.00S
CAMDEN         CLEAR     72  68  88 CALM      29.99S FOG
TEXARKANA      CLEAR     77  68  73 E3        29.99R
EL DORADO      CLEAR     73  69  87 CALM      30.00R
DE QUEEN       CLEAR     74  71  91 E3        29.97S
$$

ARZ056-057-069-030500-
SOUTHEAST ARKANSAS

CITY           SKY/WX    TMP DP  RH WIND       PRES   REMARKS
PINE BLUFF     CLEAR     72  71  97 CALM      30.00S
STUTTGART      CLEAR     73  66  78 CALM      30.00S
MONTICELLO     CLEAR     74  73  97 CALM      30.00S

$$





USA.gov is the U.S. government's official web portal to all federal, state and local government web resources and services.